White Plains, CT

4:14 AM EST on December 07, 2019 (GMT -0500)
Westchester County

Weather History for KHPN - August, 2019

Change the Weather History Date:

Monday, August 26, 2019

  Actual Average Record
Temperature  
Mean Temperature 62 °F -  
Max Temperature 72 °F 77 °F 90 °F (1993)
Min Temperature 53 °F 60 °F 50 °F (1977)
Degree Days  
Heating Degree Days 3    
Growing Degree Days 12 (Base 50)    
Moisture  
Dew Point 53 °F    
Average Humidity 70    
Maximum Humidity 90    
Minimum Humidity 51    
Precipitation  
Precipitation 0.00 in - - ()
Sea Level Pressure  
Sea Level Pressure 30.19 in    
Wind  
Wind Speed 6 mph ()    
Max Wind Speed 12 mph    
Max Gust Speed 16 mph    
Visibility 10.0 miles    
Events      
Averages and records for this station are not official NWS values.
T = Trace of Precipitation, MM = Missing Value Source: Averaged Metar Reports

Daily Weather History Graph

Daily Weather History Graph

Search for Another Location

Airport or City:

Astronomy

Aug. 26, 2019 Rise Set
Actual Time 6:15 AM EDT 7:37 PM EDT
Civil Twilight 5:46 AM EDT 8:06 PM EDT
Nautical Twilight 5:12 AM EDT 8:40 PM EDT
Astronomical Twilight 4:35 AM EDT 9:16 PM EDT
Moon 1:36 AM EDT (8/26) 5:00 PM EDT (8/26)
Length of Visible Light 14h 19m
Length of Day
13h 22m
Waning Crescent, 19% of the Moon is Illuminated
Aug 26
Waning Crescent
Aug 30
New
Sep 5
First Quarter
Sep 14
Full
Sep 21
Last Quarter

Hourly Weather History & Observations

Time (EDT) Temp. Dew Point Humidity Pressure Visibility Wind Dir Wind Speed Gust Speed Precip Events Conditions
12:56 AM 59.0 °F 53.1 °F 81% 30.23 in 10.0 mi NE 5.8 mph - N/A   Clear
1:56 AM 57.0 °F 51.1 °F 81% 30.22 in 10.0 mi NNE 5.8 mph - N/A   Clear
2:56 AM 57.0 °F 50.0 °F 77% 30.21 in 10.0 mi Variable 3.5 mph - N/A   Clear
3:56 AM 55.9 °F 50.0 °F 80% 30.20 in 10.0 mi NNE 6.9 mph - N/A   Partly Cloudy
4:56 AM 55.9 °F 50.0 °F 80% 30.21 in 10.0 mi NNE 5.8 mph - N/A   Partly Cloudy
5:56 AM 53.1 °F 50.0 °F 89% 30.23 in 10.0 mi North 5.8 mph - N/A   Partly Cloudy
6:56 AM 55.0 °F 50.0 °F 83% 30.24 in 10.0 mi NNE 8.1 mph - N/A   Partly Cloudy
7:56 AM 57.9 °F 51.1 °F 78% 30.25 in 10.0 mi NNE 6.9 mph - N/A   Clear
8:56 AM 61.0 °F 51.1 °F 70% 30.23 in 10.0 mi NE 8.1 mph - N/A   Mostly Cloudy
9:56 AM 64.9 °F 53.1 °F 65% 30.22 in 10.0 mi NE 8.1 mph - N/A   Mostly Cloudy
10:56 AM 66.9 °F 51.1 °F 57% 30.23 in 10.0 mi ENE 5.8 mph - N/A   Clear
11:56 AM 69.1 °F 51.1 °F 53% 30.21 in 10.0 mi ENE 6.9 mph - N/A   Partly Cloudy
12:56 PM 68.0 °F 53.1 °F 59% 30.22 in 10.0 mi ESE 11.5 mph 16.1 mph N/A   Scattered Clouds
1:56 PM 70.0 °F 55.0 °F 59% 30.21 in 10.0 mi ESE 11.5 mph - N/A   Partly Cloudy
2:56 PM 71.1 °F 54.0 °F 55% 30.19 in 10.0 mi SE 10.4 mph 16.1 mph N/A   Clear
3:56 PM 71.1 °F 52.0 °F 51% 30.17 in 10.0 mi SE 11.5 mph - N/A   Partly Cloudy
4:56 PM 71.1 °F 53.1 °F 53% 30.16 in 10.0 mi ESE 9.2 mph - N/A   Partly Cloudy
5:56 PM 70.0 °F 53.1 °F 55% 30.15 in 10.0 mi SE 9.2 mph - N/A   Clear
6:56 PM 66.9 °F 53.1 °F 61% 30.14 in 10.0 mi SE 5.8 mph - N/A   Clear
7:56 PM 63.0 °F 55.0 °F 75% 30.14 in 10.0 mi Calm Calm - N/A   Clear
8:56 PM 63.0 °F 54.0 °F 72% 30.15 in 10.0 mi ENE 4.6 mph - N/A   Clear
9:56 PM 62.1 °F 55.0 °F 78% 30.15 in 10.0 mi ENE 3.5 mph - N/A   Clear
10:56 PM 60.1 °F 55.9 °F 86% 30.16 in 10.0 mi Calm Calm - N/A   Clear
11:56 PM 59.0 °F 55.9 °F 90% 30.15 in 10.0 mi Calm Calm - N/A   Clear